Regional Weather Roundup
Issued by NWS Burlington, VT

Home | Current Version | Previous Version | Text Only | Print | Product List | Glossary On
Versions: 1 2 3 4 5 6 7 8 9 10 11 12 13 14 15 16 17 18 19 20 21 22 23 24 25 26 27 28 29 30 31 32 33 34 35 36 37 38 39 40 41 42 43 44 45 46 47 48 49 50
000
ASUS41 KBTV 270930
RWRBTV
VERMONT REGIONAL WEATHER ROUNDUP
NATIONAL WEATHER SERVICE BURLINGTON VT
400 AM EST SAT DEC 27 2014

NOTE: "FAIR" INDICATES FEW OR NO CLOUDS BELOW 12,000 FEET WITH NO
SIGNIFICANT WEATHER AND/OR OBSTRUCTIONS TO VISIBILITY.

* THESE REPORTS ARE NOT UNDER NWS QUALITY CONTROL AND/OR DO NOT
  REPORT WEATHER SUCH AS PRECIPITATION AND FOG.

VTZ001>019-271000-
_____VERMONT_____


CITY           SKY/WX    TMP DP  RH WIND       PRES   REMARKS
BURLINGTON     CLOUDY    39  29  67 CALM      30.12R
MONTPELIER     CLOUDY    34  28  79 CALM      30.12S
MORRISVILLE    PTSUNNY   41  29  62 NW7       30.10S
ST. JOHNSBURY*   N/A     33  29  85 MISG      30.09S
LYNDONVILLE*   CLOUDY    37  29  71 SW3       30.09S
MIDDLEBURY*    FAIR      32  32  99 CALM      30.12S
RUTLAND*       CLOUDY    39  27  60 W5        30.12R
SPRINGFIELD    CLOUDY    29  27  92 CALM      30.13S FOG
HIGHGATE*      FAIR      33  30  88 CALM      30.13R
NEWPORT*       CLOUDY    37  30  77 W5        30.10R
BENNINGTON     CLOUDY    29  27  92 CALM      30.15S
SUTTON*          N/A     34 N/A N/A MISG        N/A
GALLUP MILLS*    N/A     34 N/A N/A MISG        N/A
UNION VILLAGE*   N/A     27 N/A N/A MISG        N/A
MT. MANSFIELD*   N/A     27 N/A N/A CALM        N/A

_____LAKE CHAMPLAIN_____


CITY           SKY/WX    TMP DP  RH WIND       PRES   REMARKS
BURTON ISLAND*   N/A     39  32  75 S7          N/A
COLCHESTER RF*   N/A     41  34  75 SW10        N/A

$$

NYZ007-026>031-035-052-083-271000-
_____NORTHERN NEW YORK_____


CITY           SKY/WX    TMP DP  RH WIND       PRES   REMARKS
PLATTSBURGH    CLOUDY    36  31  82 CALM      30.12S
SARANAC LAKE   CLOUDY    35  29  78 SW3       30.07S
MASSENA        CLOUDY    37  32  82 SW5       30.14S
POTSDAM*       CLOUDY    39  34  81 W7        30.13S
STARK FALLS*     N/A     37 N/A N/A W5          N/A
WATERTOWN      CLOUDY    42  32  67 SW7       30.15S
FT DRUM        CLOUDY    39  30  70 W5        30.13S
ALBANY         PTSUNNY   29  25  85 CALM      30.19S
GLENS FALLS    CLOUDY    32  29  88 CALM      30.15F

$$
NHZ002-005-011-271000-
_____NEW HAMPSHIRE_____


CITY           SKY/WX    TMP DP  RH WIND       PRES   REMARKS
LEBANON        PTSUNNY   31  27  85 S5        30.11S
KEENE          CLOUDY    27  25  93 CALM      30.14R
MT WASHINGTON  FOG       18  18 100 NW56G62     N/A  VSB 1/16WCI  -7
PLYMOUTH       PTSUNNY   34  32  92 CALM      30.09S
WHITEFIELD     CLOUDY    33  29  85 W5        30.08S

$$

_____REGIONAL QUEBEC LOCATIONS_____


CITY           SKY/WX    TMP DP  RH WIND       PRES   REMARKS
MONTREAL       PTSUNNY   36  32  87 SW9       30.11S
QUEBEC CITY    CLOUDY    34  32  93 W9        30.02R
SHERBROOKE     CLOUDY    36  32  87 W8        30.06R

_____REGIONAL ONTARIO LOCATIONS_____


CITY           SKY/WX    TMP DP  RH WIND       PRES   REMARKS
OTTAWA         PTSUNNY   36  32  87 SW3       30.12S

______KEY______
VSB  - VISIBILITY IN MILES
WCI  - WIND CHILL INDEX
HX   - HEAT INDEX
$$
NNNN



USA.gov is the U.S. government's official web portal to all federal, state and local government web resources and services.